sat.trackr.live / text

‹ back to catalog

STARLINK-4542

NORAD 53435 · 2022-097AZ

PAYLOAD ACTIVE UNKNOWN

§ Identity

Operator
Country
US
Launch date
2022-08-10
Launch site
AFETR
Launch vehicle
Mass (kg)
RCS (m²)

Purposes: comms

External: N2YO · Heavens-Above · Gunter

§ Orbital elements

Epoch: 2026-05-25T02:39:57.808800Z

Period
95.44 min
Inclination
53.2143°
Eccentricity
0.0001276
Mean motion
15.08837291 rev/d
Perigee alt
538.9 km
Apogee alt
540.6 km
Semi-major
6,917.9 km
B*
6.9520e-5
RAAN
120.8525°
Arg perigee
86.4090°
Mean anomaly
273.7048°
Rev number
21,030

§ Raw data

STARLINK-45421 53435U 22097AZ  26145.11108575  .00000819  00000+0  69520-4 0  99992 53435  53.2143 120.8525 0001276  86.4090 273.7048 15.08837291210307

JSON: /api/v1/satellites/53435 · /tle

For live sub-satellite position, see the globe view (requires WebGL).

§ Visibility from observer

Set your observer location to see the next 7 days of passes ≥ 10°. The values pass through the URL so the page stays shareable.

No JS? Fill the form by hand. The geolocation button needs JavaScript.